Weather Roundup
Issued by NWS

Home | Current Version | Previous Version | Text Only | Print | Product List | Glossary On
Versions: 1 2 3 4 5 6 7 8 9 10 11 12 13 14 15 16 17 18 19 20 21 22 23 24 25 26 27 28 29 30 31 32 33 34 35 36 37 38 39 40 41 42 43 44 45 46 47 48 49 50
000
NZUS93 KARX 010359
HRRWXR

CURRENT HOURLY OBSERVATIONS ACROSS
MUCH OF THE UPPER MISSISSIPPI VALLEY
NATIONAL WEATHER SERVICE LA CROSSE WI
1100 PM CDT TUE SEP 30 2014


...SOUTHEAST MINNESOTA...


CITY           SKY/WX    TMP DP  RH WIND       PRES   REMARKS
ROCHESTER      CLOUDY    50  45  83 SE14      29.92F
ROCHESTER/MAYO CLOUDY    51  44  77 SE16      29.93F
WINONA         CLOUDY    48  45  87 SE9       29.96F
AUSTIN         CLOUDY    52  46  82 SE7       29.91R
ALBERT LEA     CLOUDY    55  46  71 SE14      29.88S
DODGE CENTER   CLOUDY    52  46  82 SE15      29.90F
PRESTON        CLOUDY    48  43  82 SE8       29.96R
OWATONNA       CLOUDY    54  46  76 SE16G24   29.87R
FARIBAULT      CLOUDY    55  48  76 SE13G23   29.86S
$$

...ELSEWHERE IN MINNESOTA...


CITY           SKY/WX    TMP DP  RH WIND       PRES   REMARKS
MINNEAPOLIS    CLOUDY    52  45  77 SE16G25   29.86S
INTNL FALLS    PTCLDY    46  40  79 SE10      29.86S
DULUTH         CLOUDY    46  43  89 E14       29.93S
RED WING       CLOUDY    52  45  76 SE15      29.91F
REDWOOD FALLS  PTCLDY    59  56  89 SE14      29.78S
MANKATO        CLOUDY    57  48  72 SE13      29.84F
WORTHINGTON    CLOUDY    59  55  88 S9G20     29.81S
FAIRMONT       MOCLDY    57  52  82 SE15G21   29.83F
$$

...SOUTHWEST WISCONSIN...


CITY           SKY/WX    TMP DP  RH WIND       PRES   REMARKS
LA CROSSE      CLOUDY    50  43  77 SE9       29.98F
PRAIRIE DU CHI MOCLDY    48  42  80 E8        29.99F
BOSCOBEL       PTCLDY    47  43  86 CALM      30.01F
LONE ROCK      NOT AVBL
PLATTEVILLE    PTCLDY    46  43  90 E9        30.00F
FORT MC COY    NOT AVBL
VIROQUA        FAIR      45  45 100 E5        29.99F
WIS DELLS      PTCLDY    42  40  93 E5        30.03S
$$

...ELSEWHERE IN WISCONSIN...


CITY           SKY/WX    TMP DP  RH WIND       PRES   REMARKS
MILWAUKEE      MOCLDY    51  49  92 NW6       30.04F
MADISON        CLOUDY    49  44  83 E9        30.03F
GREEN BAY      CLOUDY    48  45  89 CALM      30.07S
EAU CLAIRE     NOT AVBL
BLACK RVR FLS  CLOUDY    47  42  82 SE9       30.01S
MEDFORD        CLOUDY    44  42  93 SE8       30.01S
WAUSAU         CLOUDY    45  42  89 SE9       30.03F
WIS RAPIDS     CLOUDY    47  43  86 SE7       30.06S
MARSHFIELD     CLOUDY    46  42  86 SE10G18   30.02F
RICE LAKE      PTCLDY    47  42  82 SE13      29.97S
$$

...NORTHEAST IOWA...


CITY           SKY/WX    TMP DP  RH WIND       PRES   REMARKS
DECORAH        CLOUDY    48  45  87 E16       29.93F
MASON CITY     LGT RAIN  56  51  84 SE14      29.89F
CHARLES CITY   CLOUDY    54  46  76 SE7       29.94F
OELWEIN        MOCLDY    52  45  76 SE12G21   29.94R
$$

...ELSEWHERE IN IOWA...


CITY           SKY/WX    TMP DP  RH WIND       PRES   REMARKS
DES MOINES     CLOUDY    66  57  72 SE10      29.84F
IOWA CITY      PTCLDY    55  48  77 E9        29.94S
FORT DODGE     CLOUDY    59  55  88 SE16      29.84F
$$

...NORTHERN ILLINOIS...


CITY           SKY/WX    TMP DP  RH WIND       PRES   REMARKS
CHICAGO-OHARE  CLOUDY    55  47  74 E7        30.02S
CHICAGO-MIDWAY NOT AVBL
MOLINE         NOT AVBL
ROCKFORD       CLOUDY    52  45  77 E10       30.04F
PEORIA         CLEAR     57  48  72 E16       29.97F
$$

NOTE: "FAIR" INDICATES FEW OR NO CLOUDS BELOW 12,000 FEET WITH NO
SIGNIFICANT WEATHER AND/OR OBSTRUCTIONS TO VISIBILITY. WIND
SPEEDS ARE IN MILES-PER-HOUR.



USA.gov is the U.S. government's official web portal to all federal, state and local government web resources and services.